[[{"header":{"parameterUnit":"m.s-1","parameterCategory":1,"la1":30.2991,"la2":30.254,"lo1":-89.0895,"lo2":-89.0444,"dy":0.0017,"dx":0.0017,"nx":28,"ny":28,"refTime":"2025-08-08T21:00:00:Z","depth":0,"parameterNumber":2,"parameterNumberName":"U-component_of_WINDS"},"data":[0,0,0,0,0,0,0,0,0,0,0,0,0,0,0,0,0,0,0,0,0,0,0,0,0,0,0,0,0,0,0,0,0,0,0,0,0,0,0,0,0,0,0,0,0,0,0,0,0,0,0,0,0,0,0,0,0,0,-3.1663,-3.1663,0,-3.1637,-3.1637,-3.1637,-3.1573,-3.1572,-3.157,-3.1569,-3.1542,-3.1542,-3.1543,0,0,0,0,0,0,0,0,0,0,0,0,0,-3.1659,-3.1659,-3.1663,-3.1663,-3.1663,-3.1637,-3.1637,-3.1637,-3.1573,-3.1572,-3.157,-3.1569,-3.1541,-3.1542,-3.1543,0,0,0,0,0,0,0,0,0,0,0,0,0,-3.165,-3.1659,-3.1663,-3.1628,-3.1625,-3.1637,-3.1637,-3.1637,-3.1574,-3.1572,-3.157,-3.1568,-3.1541,-3.1542,-3.1543,-3.1587,0,0,-3.1545,-3.1545,0,0,0,0,0,0,0,0,-3.165,-3.165,-3.1634,-3.1631,-3.1627,-3.1606,-3.1625,-3.162,-3.1574,-3.1593,-3.1569,-3.1567,-3.1565,-3.1563,-3.1563,-3.1586,-3.1585,-3.1545,-3.1546,-3.1546,-3.1546,0,0,0,0,0,0,0,-3.1651,-3.1651,-3.1653,-3.1633,-3.1629,-3.1614,-3.161,-3.1624,-3.159,-3.1591,-3.1586,-3.1584,-3.1562,-3.1562,-3.1562,-3.1585,-3.1545,-3.1546,-3.1546,-3.1547,-3.1646,-3.1648,0,0,0,0,0,0,-3.1657,-3.1651,-3.1654,-3.1652,-3.1634,-3.1615,-3.1611,-3.1615,-3.159,-3.1584,-3.1586,-3.1581,-3.1562,-3.1561,-3.1561,-3.1613,-3.1546,-3.1547,-3.1547,-3.1644,-3.1646,-3.1649,0,0,0,0,0,0,-3.1657,-3.1657,-3.1655,-3.1651,-3.1649,-3.1618,-3.1622,-3.1615,-3.1615,-3.1586,-3.158,-3.1592,-3.156,-3.1559,-3.1582,-3.1611,-3.1547,-3.1548,-3.1641,-3.1644,-3.1647,-3.1717,0,0,0,0,0,0,-3.1657,-3.1658,-3.1674,-3.1651,-3.165,-3.1677,-3.1624,-3.1616,-3.1617,-3.1611,-3.159,-3.1585,-3.1559,-3.1581,-3.1583,-3.1611,-3.1548,-3.1638,-3.1642,-3.1646,-3.1712,-3.1722,-3.1731,0,0,0,0,0,-3.1657,-3.1694,-3.1675,-3.1676,-3.1669,-3.1678,-3.1677,-3.1647,-3.1619,-3.1636,-3.1618,-3.1585,-3.1608,-3.1584,-3.1585,-3.1614,-3.1636,-3.1641,-3.1646,-3.1707,-3.172,-3.1731,0,0,0,0,0,0,-3.172,-3.169,-3.1669,-3.17,-3.1692,-3.1668,-3.1687,-3.1661,-3.166,-3.1654,-3.1616,-3.1612,-3.164,-3.1629,-3.1603,-3.1657,-3.1617,-3.1622,-3.1663,-3.1675,-3.1684,-3.1686,-3.1549,0,0,0,0,0,-3.1738,-3.1747,-3.1721,-3.1751,-3.1748,-3.1719,-3.1721,-3.1699,-3.1689,-3.1685,-3.1668,-3.166,-3.1665,-3.1669,-3.1672,-3.171,-3.1705,-3.1731,-3.174,-3.1748,-3.1753,-3.1774,-3.1786,-3.1665,-3.1665,-3.1664,0,0,-3.1774,-3.1759,-3.1767,-3.1763,-3.1754,-3.1766,-3.1716,-3.173,-3.1738,-3.1687,-3.1708,-3.1695,-3.1684,-3.1715,-3.1727,-3.1706,-3.1786,-3.1754,-3.1761,-3.1762,-3.1781,-3.1792,-3.1802,-3.1668,-3.1667,-3.1667,0,0,-3.1846,-3.1835,-3.186,-3.1853,-3.1841,-3.1821,-3.1827,-3.1807,-3.1797,-3.1818,-3.178,-3.179,-3.1799,-3.1793,-3.1791,-3.1864,-3.1835,-3.1866,-3.1916,-3.1937,-3.1946,-3.1954,-3.1982,-3.1992,-3.1871,-3.1871,-3.1871,0,-3.1892,-3.1908,-3.1875,-3.1892,-3.1892,-3.1848,-3.1873,-3.1868,-3.1857,-3.1859,-3.1835,-3.1848,-3.1837,-3.1866,-3.1885,-3.1884,-3.1891,-3.1868,-3.1947,-3.1955,-3.1963,-3.1988,-3.1998,-3.1875,-3.1875,-3.1874,-3.1874,0,-3.1966,-3.1978,-3.1999,-3.1991,-3.1994,-3.2015,-3.1986,-3.1993,-3.1971,-3.1954,-3.1976,-3.1962,-3.1962,-3.1968,-3.1945,-3.1995,-3.1983,-3.1954,-3.1913,-3.1979,-3.2002,-3.2012,-3.1881,-3.1879,-3.1878,-3.1877,0,0,-3.2075,-3.2051,-3.206,-3.2057,-3.2042,-3.205,-3.207,-3.2071,-3.2078,-3.2073,-3.2089,-3.2099,-3.2074,-3.2072,-3.2049,-3.2067,-3.2128,-3.2036,-3.2036,-3.2055,-3.2183,-3.2205,-3.2217,-3.2109,-3.211,-3.2112,-3.2185,0,-3.2143,-3.2176,-3.2149,-3.2186,-3.2198,-3.2157,-3.2175,-3.2168,-3.2153,-3.2161,-3.2145,-3.2153,-3.2118,-3.2117,-3.2134,-3.2117,-3.2153,-3.2111,-3.2124,-3.2125,-3.2129,-3.2229,-3.2252,-3.2321,-3.2193,-3.2195,-3.2196,0,-3.2227,-3.2227,-3.2267,-3.2251,-3.2255,-3.2271,-3.2271,-3.2279,-3.2271,-3.2259,-3.2259,-3.2232,-3.2251,-3.2211,-3.2237,-3.221,-3.2214,-3.2207,-3.2209,-3.2209,-3.2165,-3.2233,-3.2342,-3.2353,-3.221,-3.2209,-3.2208,0,-3.2304,-3.2314,-3.234,-3.2338,-3.232,-3.2333,-3.2326,-3.2316,-3.232,-3.232,-3.2322,-3.2324,-3.2325,-3.2328,-3.2303,-3.2276,-3.2333,-3.2291,-3.2325,-3.2326,-3.2338,-3.2338,-3.2451,-3.2341,-3.234,-3.234,-3.234,0,-3.2383,-3.2409,-3.2374,-3.239,-3.2418,-3.2387,-3.2416,-3.2405,-3.2398,-3.2411,-3.2376,-3.2389,-3.2355,-3.2365,-3.2345,-3.2371,-3.2371,-3.2363,-3.2358,-3.2367,-3.2368,-3.2369,-3.2363,-3.2343,-3.2342,-3.2342,-3.2341,0,-3.2474,-3.2451,-3.2476,-3.2459,-3.2455,-3.2477,-3.2462,-3.2476,-3.246,-3.2478,-3.248,-3.2455,-3.2465,-3.2441,-3.2447,-3.2434,-3.2471,-3.2458,-3.2474,-3.2471,-3.2506,-3.2504,-3.2624,-3.2639,-3.2519,-3.252,-3.2521,0,-3.2526,-3.2545,-3.253,-3.2537,-3.2533,-3.2544,-3.2548,-3.2519,-3.2524,-3.2518,-3.2533,-3.2541,-3.2545,-3.2564,-3.2547,-3.2552,-3.2538,-3.258,-3.2539,-3.2548,-3.254,-3.254,-3.2542,-3.2589,-3.259,-3.2592,-3.2593,0,-3.2621,-3.261,-3.2617,-3.2621,-3.2627,-3.2628,-3.2627,-3.2635,-3.2604,-3.2612,-3.2623,-3.2627,-3.2634,-3.2643,-3.2645,-3.2638,-3.2611,-3.2606,-3.2614,-3.2624,-3.2633,-3.263,-3.2498,-3.2603,-3.2602,-3.2601,-3.2601,-3.26,-3.2694,-3.271,-3.2703,-3.2713,-3.271,-3.271,-3.2723,-3.271,-3.2719,-3.2723,-3.2706,-3.2721,-3.2714,-3.2714,-3.2711,-3.2723,-3.2703,-3.2715,-3.2718,-3.2722,-3.2728,-3.2631,-3.2723,-3.2722,-3.2722,-3.2722,-3.2721,0,-3.2789,-3.2783,-3.2792,-3.2793,-3.2801,-3.2776,-3.2774,-3.2783,-3.2797,-3.2793,-3.2799,-3.2813,-3.2821,-3.2806,-3.2812,-3.2825,-3.2813,-3.2828,-3.2826,-3.2826,-3.2744,-3.2737,-3.2837,-3.2837,-3.2837,-3.2837,-3.2837,-3.2837,-3.2839,-3.2865,-3.2854,-3.2879,-3.2873,-3.2888,-3.2889,-3.289,-3.2888,-3.2904,-3.2912,-3.2902,-3.2894,-3.2901,-3.2908,-3.2903,-3.2908,-3.2927,-3.2918,-3.2842,-3.2831,-3.282,-3.2813,-3.2928,-3.2928,-3.2999,-3.2999,-3.3]},{"header":{"parameterUnit":"m.s-1","parameterCategory":1,"la1":30.2991,"la2":30.254,"lo1":-89.0895,"lo2":-89.0444,"dy":0.0017,"dx":0.0017,"nx":28,"ny":28,"refTime":"2025-08-08T21:00:00:Z","depth":0,"parameterNumber":3,"parameterNumberName":"V-component_of_WINDS"},"data":[0,0,0,0,0,0,0,0,0,0,0,0,0,0,0,0,0,0,0,0,0,0,0,0,0,0,0,0,0,0,0,0,0,0,0,0,0,0,0,0,0,0,0,0,0,0,0,0,0,0,0,0,0,0,0,0,0,0,-2.2298,-2.2299,0,-2.232,-2.232,-2.232,-2.2263,-2.2261,-2.226,-2.2258,-2.2281,-2.2283,-2.2285,0,0,0,0,0,0,0,0,0,0,0,0,0,-2.2207,-2.2209,-2.2298,-2.2299,-2.2299,-2.232,-2.232,-2.2321,-2.2264,-2.2261,-2.2259,-2.2257,-2.228,-2.2283,-2.2285,0,0,0,0,0,0,0,0,0,0,0,0,0,-2.2239,-2.2209,-2.2298,-2.2273,-2.2271,-2.232,-2.232,-2.2321,-2.2264,-2.2261,-2.2259,-2.2256,-2.2279,-2.2282,-2.2286,-2.236,0,0,-2.2296,-2.2298,0,0,0,0,0,0,0,0,-2.2238,-2.2243,-2.2276,-2.2275,-2.2273,-2.2286,-2.2296,-2.2334,-2.2265,-2.2267,-2.2258,-2.2255,-2.2285,-2.2287,-2.2297,-2.2361,-2.2362,-2.2296,-2.2298,-2.23,-2.2301,0,0,0,0,0,0,0,-2.2235,-2.2241,-2.2307,-2.2277,-2.2275,-2.226,-2.2262,-2.2303,-2.229,-2.2266,-2.2262,-2.2266,-2.2283,-2.2294,-2.2297,-2.2363,-2.2296,-2.2299,-2.2301,-2.2303,-2.2489,-2.2491,0,0,0,0,0,0,-2.2236,-2.224,-2.2306,-2.2307,-2.2248,-2.2264,-2.2266,-2.2285,-2.229,-2.2288,-2.2268,-2.2263,-2.229,-2.2294,-2.2298,-2.2386,-2.23,-2.2303,-2.2305,-2.2486,-2.2489,-2.2492,0,0,0,0,0,0,-2.2235,-2.2243,-2.2305,-2.2273,-2.2279,-2.2268,-2.229,-2.2286,-2.2297,-2.2291,-2.2288,-2.2282,-2.2288,-2.2293,-2.2345,-2.2386,-2.2305,-2.2308,-2.2482,-2.2487,-2.2491,-2.2563,0,0,0,0,0,0,-2.2232,-2.2243,-2.2271,-2.2274,-2.2281,-2.2353,-2.2292,-2.2289,-2.2303,-2.2297,-2.2303,-2.2302,-2.2286,-2.234,-2.2349,-2.239,-2.231,-2.2479,-2.2484,-2.2489,-2.2557,-2.257,-2.258,0,0,0,0,0,-2.2229,-2.2291,-2.2273,-2.2281,-2.2317,-2.2355,-2.2359,-2.234,-2.2307,-2.2336,-2.2331,-2.2302,-2.238,-2.2346,-2.2355,-2.2398,-2.2476,-2.2483,-2.2489,-2.2552,-2.2567,-2.258,0,0,0,0,0,0,-2.2294,-2.2291,-2.2271,-2.2335,-2.2346,-2.2345,-2.2381,-2.2357,-2.2377,-2.237,-2.2345,-2.2347,-2.2404,-2.2405,-2.2368,-2.247,-2.2422,-2.2431,-2.2467,-2.2482,-2.2493,-2.2492,-2.2313,0,0,0,0,0,-2.2315,-2.2347,-2.2342,-2.2399,-2.2406,-2.2392,-2.2408,-2.2392,-2.2402,-2.2407,-2.2406,-2.2417,-2.2444,-2.2462,-2.2487,-2.2556,-2.2557,-2.259,-2.2601,-2.2611,-2.2619,-2.2656,-2.2671,-2.2514,-2.2514,-2.2514,0,0,-2.2361,-2.2363,-2.2384,-2.2412,-2.2419,-2.2452,-2.2397,-2.2434,-2.2458,-2.2412,-2.2462,-2.2461,-2.2472,-2.2533,-2.256,-2.2536,-2.2662,-2.2619,-2.2627,-2.263,-2.2665,-2.2679,-2.2693,-2.2518,-2.2517,-2.2517,0,0,-2.2461,-2.2465,-2.2513,-2.2521,-2.2531,-2.2521,-2.2533,-2.2536,-2.2534,-2.2583,-2.2549,-2.2577,-2.2624,-2.2633,-2.2643,-2.2745,-2.2719,-2.2753,-2.2814,-2.2851,-2.2863,-2.2874,-2.2912,-2.2925,-2.2761,-2.2761,-2.2762,0,-2.2516,-2.2565,-2.2541,-2.2581,-2.2595,-2.2553,-2.2602,-2.261,-2.2628,-2.2638,-2.261,-2.2668,-2.2672,-2.2735,-2.276,-2.2769,-2.2782,-2.2754,-2.2863,-2.2874,-2.2884,-2.2919,-2.2933,-2.2766,-2.2765,-2.2765,-2.2764,0,-2.2633,-2.2667,-2.2704,-2.2723,-2.274,-2.2784,-2.2767,-2.2787,-2.2769,-2.2762,-2.2812,-2.2815,-2.284,-2.2853,-2.2836,-2.2913,-2.2898,-2.2867,-2.282,-2.2904,-2.2937,-2.295,-2.2772,-2.277,-2.2769,-2.2768,0,0,-2.2776,-2.278,-2.2794,-2.2802,-2.2809,-2.2835,-2.2877,-2.29,-2.2919,-2.2931,-2.2966,-2.3006,-2.2977,-2.2989,-2.2972,-2.3004,-2.3086,-2.2969,-2.2969,-2.2992,-2.3173,-2.3197,-2.3214,-2.3067,-2.307,-2.3072,-2.3172,0,-2.2876,-2.2948,-2.2928,-2.3,-2.3032,-2.2992,-2.3028,-2.3037,-2.3031,-2.3056,-2.305,-2.3079,-2.3038,-2.3045,-2.3075,-2.307,-2.3122,-2.3062,-2.31,-2.3102,-2.3102,-2.323,-2.3257,-2.3352,-2.3185,-2.3187,-2.3188,0,-2.3003,-2.3021,-2.3096,-2.3098,-2.3111,-2.3144,-2.3164,-2.3188,-2.3196,-2.319,-2.3203,-2.3179,-2.322,-2.317,-2.3226,-2.3185,-2.3199,-2.3199,-2.3202,-2.3207,-2.3152,-2.3241,-2.3382,-2.3397,-2.3208,-2.3207,-2.3205,0,-2.3102,-2.3145,-2.3195,-2.3203,-2.3206,-2.323,-2.3233,-2.3238,-2.3253,-2.327,-2.328,-2.3301,-2.3314,-2.3331,-2.3313,-2.3278,-2.3372,-2.3321,-2.3369,-2.337,-2.3393,-2.3392,-2.354,-2.3398,-2.3398,-2.3398,-2.3397,0,-2.3217,-2.3265,-2.324,-2.3272,-2.3324,-2.3299,-2.3352,-2.335,-2.3355,-2.3385,-2.3351,-2.338,-2.3354,-2.3381,-2.3367,-2.3416,-2.3421,-2.3418,-2.3414,-2.3422,-2.3423,-2.3433,-2.3427,-2.3401,-2.3401,-2.34,-2.3399,0,-2.3338,-2.3323,-2.3376,-2.3374,-2.3374,-2.3414,-2.3412,-2.3441,-2.3431,-2.347,-2.3478,-2.3464,-2.3494,-2.3477,-2.3507,-2.3498,-2.3562,-2.3548,-2.356,-2.3557,-2.3607,-2.3603,-2.3768,-2.3789,-2.3632,-2.3634,-2.3635,0,-2.3413,-2.3449,-2.3451,-2.3469,-2.3474,-2.3503,-2.3518,-2.3494,-2.3512,-2.3523,-2.3551,-2.3577,-2.3597,-2.3646,-2.3639,-2.3662,-2.3649,-2.3705,-2.3653,-2.366,-2.3652,-2.3651,-2.3655,-2.3717,-2.3719,-2.372,-2.3722,0,-2.3549,-2.354,-2.3563,-2.3585,-2.3604,-2.3619,-2.3632,-2.3648,-2.3624,-2.3645,-2.3675,-2.3691,-2.3721,-2.3748,-2.3767,-2.3769,-2.3742,-2.3738,-2.3751,-2.3761,-2.3766,-2.3766,-2.3591,-2.3735,-2.3734,-2.3733,-2.3732,-2.3731,-2.3651,-2.3681,-2.3687,-2.3715,-2.3721,-2.3734,-2.3761,-2.3755,-2.3779,-2.3803,-2.3786,-2.3822,-2.3828,-2.3851,-2.3856,-2.3883,-2.3861,-2.3879,-2.3884,-2.3889,-2.3897,-2.376,-2.3887,-2.3886,-2.3886,-2.3885,-2.3885,0,-2.3786,-2.3788,-2.3813,-2.3832,-2.3853,-2.3824,-2.3836,-2.3856,-2.3888,-2.3896,-2.3916,-2.395,-2.3976,-2.397,-2.3993,-2.4016,-2.4004,-2.4023,-2.4022,-2.4023,-2.3915,-2.3903,-2.4032,-2.4032,-2.4032,-2.4032,-2.4032,-2.4032,-2.3859,-2.391,-2.3901,-2.3954,-2.3955,-2.3989,-2.3999,-2.401,-2.4016,-2.4056,-2.4077,-2.4073,-2.4075,-2.4098,-2.412,-2.4117,-2.4128,-2.4152,-2.4146,-2.4045,-2.4031,-2.4017,-2.4005,-2.4155,-2.4155,-2.4252,-2.4253,-2.4253]}]]